Oscoda, MI

8:17 AM EST on December 13, 2019 (GMT -0500)
Oscoda-Wurtsmith

Weather History for KOSC - July, 2019

Change the Weather History Date:

Tuesday, July 16, 2019

  Actual Average Record
Temperature  
Mean Temperature 79 °F -  
Max Temperature 88 °F 77 °F 98 °F (2002)
Min Temperature 70 °F 57 °F 42 °F (2015)
Cooling Degree Days 14    
Growing Degree Days 29 (Base 50)    
Moisture  
Dew Point 66 °F    
Average Humidity 64    
Maximum Humidity 88    
Minimum Humidity 47    
Precipitation  
Precipitation 0.00 in - - ()
Sea Level Pressure  
Sea Level Pressure 29.88 in    
Wind  
Wind Speed 12 mph (WSW)    
Max Wind Speed 21 mph    
Max Gust Speed 24 mph    
Visibility 10 miles    
Events      
Averages and records for this station are not official NWS values.
T = Trace of Precipitation, MM = Missing Value Source: NWS Daily Summary

Daily Weather History Graph

Daily Weather History Graph

Search for Another Location

Airport or City:

Astronomy

Jul. 16, 2019 Rise Set
Actual Time 6:03 AM EDT 9:14 PM EDT
Civil Twilight 5:28 AM EDT 9:50 PM EDT
Nautical Twilight 4:42 AM EDT 10:35 PM EDT
Astronomical Twilight 3:47 AM EDT 11:30 PM EDT
Moon 9:20 PM EDT (7/16) 5:40 AM EDT (7/16)
Length of Visible Light 16h 21m
Length of Day
15h 11m
Full, 100% of the Moon is Illuminated
Jul 16
Full
Jul 16
Full
Jul 24
Last Quarter
Jul 31
New
Aug 7
First Quarter

Hourly Weather History & Observations

Time (EDT) Temp. Heat Index Dew Point Humidity Pressure Visibility Wind Dir Wind Speed Gust Speed Precip Events Conditions
12:16 AM 72.9 °F - 69.1 °F 88% 29.91 in 10.0 mi SSW 6.9 mph - N/A   Clear
12:35 AM 73.0 °F - 68.2 °F 85% 29.91 in 10.0 mi SW 8.1 mph - N/A   Clear
12:55 AM 73.9 °F - 66.9 °F 79% 29.90 in 10.0 mi SW 12.7 mph - N/A   Clear
12:56 AM 74.1 °F - 66.7 °F 78% 29.90 in 10.0 mi SW 11.5 mph - N/A   Clear
1:19 AM 75.7 °F - 66.2 °F 72% 29.90 in 10.0 mi SW 15.0 mph 23.0 mph N/A   Clear
1:37 AM 75.7 °F - 65.7 °F 71% 29.90 in 10.0 mi WSW 17.3 mph 20.7 mph N/A   Clear
1:55 AM 75.2 °F - 65.5 °F 72% 29.90 in 10.0 mi WSW 11.5 mph - N/A   Clear
2:15 AM 75.6 °F - 65.3 °F 70% 29.89 in 10.0 mi WSW 13.8 mph - N/A   Clear
2:16 AM 75.7 °F - 65.3 °F 70% 29.89 in 10.0 mi WSW 13.8 mph - N/A   Clear
2:35 AM 76.1 °F - 65.3 °F 69% 29.89 in 10.0 mi WSW 13.8 mph - N/A   Clear
2:40 AM 76.1 °F - 65.3 °F 69% 29.89 in 10.0 mi WSW 11.5 mph - N/A   Clear
2:58 AM 76.5 °F - 64.9 °F 67% 29.88 in 10.0 mi SW 16.1 mph 19.6 mph N/A   Clear
3:16 AM 76.1 °F - 64.9 °F 68% 29.88 in 10.0 mi WSW 13.8 mph - N/A   Clear
3:35 AM 75.7 °F - 64.8 °F 69% 29.88 in 10.0 mi SW 11.5 mph - N/A   Clear
3:36 AM 75.7 °F - 64.9 °F 69% 29.88 in 10.0 mi WSW 11.5 mph - N/A   Clear
3:55 AM 74.8 °F - 64.9 °F 71% 29.88 in 10.0 mi WSW 12.7 mph - N/A   Clear
4:18 AM 74.5 °F - 64.9 °F 72% 29.87 in 10.0 mi WSW 10.4 mph - N/A   Clear
4:36 AM 73.6 °F - 64.9 °F 74% 29.87 in 10.0 mi SW 10.4 mph - N/A   Clear
4:55 AM 73.4 °F - 64.8 °F 74% 29.86 in 10.0 mi SW 11.5 mph - N/A   Clear
4:56 AM 73.4 °F - 64.8 °F 74% 29.86 in 10.0 mi SW 11.5 mph - N/A   Clear
5:15 AM 73.2 °F - 64.6 °F 74% 29.87 in 10.0 mi SW 10.4 mph - N/A   Clear
5:16 AM 73.0 °F - 64.6 °F 75% 29.87 in 10.0 mi SW 10.4 mph - N/A   Clear
5:39 AM 72.0 °F - 64.4 °F 77% 29.87 in 10.0 mi SW 6.9 mph - N/A   Clear
5:57 AM 71.6 °F - 64.4 °F 78% 29.88 in 10.0 mi SW 8.1 mph - N/A   Clear
6:15 AM 71.2 °F - 64.4 °F 79% 29.88 in 10.0 mi SW 6.9 mph - N/A   Clear
6:35 AM 72.7 °F - 64.2 °F 75% 29.86 in 10.0 mi SSW 15.0 mph - N/A   Clear
6:36 AM 72.7 °F - 64.2 °F 75% 29.86 in 10.0 mi SSW 15.0 mph - N/A   Clear
6:55 AM 72.5 °F - 63.7 °F 74% 29.87 in 10.0 mi SW 12.7 mph - N/A   Clear
7:00 AM 72.5 °F - 63.7 °F 74% 29.88 in 10.0 mi SW 11.5 mph 18.4 mph N/A   Clear
7:18 AM 73.2 °F - 63.7 °F 72% 29.89 in 10.0 mi WSW 10.4 mph - N/A   Clear
7:36 AM 74.8 °F - 63.7 °F 68% 29.90 in 10.0 mi WSW 12.7 mph - N/A   Clear
7:55 AM 75.6 °F - 63.9 °F 67% 29.91 in 10.0 mi WSW 9.2 mph - N/A   Clear
8:15 AM 76.5 °F - 64.0 °F 65% 29.91 in 10.0 mi WSW 12.7 mph - N/A   Clear
8:16 AM 76.5 °F - 64.0 °F 65% 29.91 in 10.0 mi WSW 12.7 mph - N/A   Clear
8:39 AM 76.5 °F - 63.9 °F 65% 29.91 in 10.0 mi WSW 12.7 mph 17.3 mph N/A   Clear
8:57 AM 78.3 °F - 64.4 °F 62% 29.92 in 10.0 mi WSW 11.5 mph - N/A   Clear
9:15 AM 78.1 °F - 63.9 °F 61% 29.92 in 10.0 mi WSW 10.4 mph 18.4 mph N/A   Clear
9:35 AM 77.9 °F - 63.9 °F 62% 29.92 in 10.0 mi WSW 18.4 mph 23.0 mph N/A   Clear
9:36 AM 77.9 °F - 63.9 °F 62% 29.92 in 10.0 mi WSW 20.7 mph - N/A   Clear
9:55 AM 79.5 °F - 64.6 °F 60% 29.92 in 10.0 mi WSW 16.1 mph 20.7 mph N/A   Clear
10:00 AM 80.1 °F 81.8 °F 64.4 °F 59% 29.92 in 10.0 mi WSW 15.0 mph 20.7 mph N/A   Clear
10:18 AM 80.6 °F 82.3 °F 64.6 °F 58% 29.91 in 10.0 mi WSW 16.1 mph 24.2 mph N/A   Clear
10:36 AM 82.4 °F 84.2 °F 65.1 °F 56% 29.90 in 10.0 mi West 13.8 mph 23.0 mph N/A   Clear
10:55 AM 82.6 °F 84.3 °F 64.9 °F 55% 29.90 in 10.0 mi WSW 13.8 mph 20.7 mph N/A   Clear
11:15 AM 83.3 °F 85.1 °F 65.3 °F 54% 29.90 in 10.0 mi WSW 18.4 mph 24.2 mph N/A   Clear
11:16 AM 83.3 °F 85.1 °F 65.1 °F 54% 29.90 in 10.0 mi WSW 17.3 mph 24.2 mph N/A   Clear
11:39 AM 83.5 °F 85.5 °F 66.0 °F 55% 29.90 in 10.0 mi SW 15.0 mph - N/A   Scattered Clouds
11:57 AM 84.0 °F 86.0 °F 65.5 °F 54% 29.90 in 10.0 mi SW 15.0 mph 20.7 mph N/A   Mostly Cloudy
12:15 PM 84.4 °F 86.6 °F 65.8 °F 54% 29.90 in 10.0 mi SSW 16.1 mph 23.0 mph N/A   Mostly Cloudy
12:35 PM 85.3 °F 87.4 °F 65.8 °F 52% 29.90 in 10.0 mi SW 18.4 mph 23.0 mph N/A   Mostly Cloudy
12:55 PM 84.2 °F 86.8 °F 66.7 °F 56% 29.90 in 10.0 mi SSW 13.8 mph 18.4 mph N/A   Scattered Clouds
1:00 PM 84.6 °F 87.1 °F 66.9 °F 55% 29.90 in 10.0 mi SSW 15.0 mph 19.6 mph N/A   Scattered Clouds
1:18 PM 85.1 °F 87.7 °F 66.6 °F 54% 29.90 in 10.0 mi SW 13.8 mph - N/A   Mostly Cloudy
1:36 PM 83.8 °F 86.0 °F 66.2 °F 55% 29.89 in 10.0 mi WSW 13.8 mph 19.6 mph N/A   Overcast
1:55 PM 83.7 °F 86.2 °F 66.9 °F 57% 29.88 in 10.0 mi WSW 17.3 mph 21.9 mph N/A   Mostly Cloudy
2:15 PM 86.7 °F 89.0 °F 66.2 °F 50% 29.88 in 10.0 mi SW 17.3 mph - N/A   Scattered Clouds
2:39 PM 85.8 °F 87.9 °F 65.8 °F 51% 29.87 in 10.0 mi SW 16.1 mph 23.0 mph N/A   Mostly Cloudy
2:57 PM 86.5 °F 89.0 °F 66.4 °F 51% 29.87 in 10.0 mi WSW 13.8 mph 23.0 mph N/A   Scattered Clouds
3:15 PM 86.9 °F 88.9 °F 65.7 °F 49% 29.87 in 10.0 mi WSW 15.0 mph - N/A   Scattered Clouds
3:16 PM 86.9 °F 88.9 °F 65.7 °F 49% 29.87 in 10.0 mi WSW 15.0 mph - N/A   Mostly Cloudy
3:35 PM 86.2 °F 88.2 °F 65.7 °F 50% 29.86 in 10.0 mi West 16.1 mph 20.7 mph N/A   Mostly Cloudy
3:36 PM 86.5 °F 88.7 °F 65.8 °F 50% 29.86 in 10.0 mi WSW 15.0 mph 19.6 mph N/A   Mostly Cloudy
3:55 PM 87.6 °F 89.7 °F 65.7 °F 48% 29.85 in 10.0 mi West 13.8 mph - N/A   Scattered Clouds
4:18 PM 88.0 °F 90.0 °F 65.3 °F 47% 29.85 in 10.0 mi West 11.5 mph 20.7 mph N/A   Scattered Clouds
4:36 PM 87.6 °F 89.7 °F 65.5 °F 48% 29.85 in 10.0 mi West 12.7 mph 18.4 mph N/A   Scattered Clouds
4:55 PM 88.7 °F 91.1 °F 65.8 °F 47% 29.84 in 10.0 mi West 11.5 mph 21.9 mph N/A   Mostly Cloudy
4:56 PM 88.7 °F 91.1 °F 66.0 °F 47% 29.84 in 10.0 mi West 11.5 mph 21.9 mph N/A   Mostly Cloudy
5:15 PM 87.6 °F 90.1 °F 66.4 °F 49% 29.84 in 10.0 mi SW 13.8 mph - N/A   Mostly Cloudy
5:16 PM 88.0 °F 90.3 °F 66.2 °F 48% 29.84 in 10.0 mi WSW 13.8 mph - N/A   Mostly Cloudy
5:39 PM 87.4 °F 90.1 °F 66.7 °F 50% 29.83 in 10.0 mi West 11.5 mph 16.1 mph N/A   Mostly Cloudy
5:57 PM 86.0 °F 88.5 °F 66.4 °F 52% 29.83 in 10.0 mi West 9.2 mph - N/A   Mostly Cloudy
6:15 PM 87.8 °F 90.4 °F 66.2 °F 49% 29.83 in 10.0 mi West 11.5 mph - N/A   Scattered Clouds
6:16 PM 87.8 °F 90.4 °F 66.2 °F 49% 29.83 in 10.0 mi WSW 11.5 mph - N/A   Scattered Clouds
6:35 PM 86.7 °F 89.0 °F 66.2 °F 50% 29.84 in 10.0 mi WSW 15.0 mph 18.4 mph N/A   Scattered Clouds
6:36 PM 86.9 °F 89.3 °F 66.2 °F 50% 29.84 in 10.0 mi WSW 13.8 mph 18.4 mph N/A   Scattered Clouds
6:55 PM 86.2 °F 88.8 °F 66.9 °F 52% 29.83 in 10.0 mi WSW 10.4 mph - N/A   Scattered Clouds
7:00 PM 86.4 °F 88.7 °F 66.2 °F 51% 29.83 in 10.0 mi WSW 12.7 mph - N/A   Scattered Clouds
7:18 PM 86.2 °F 88.8 °F 66.7 °F 52% 29.84 in 10.0 mi SW 11.5 mph - N/A   Scattered Clouds
7:36 PM 84.7 °F 87.4 °F 67.1 °F 55% 29.84 in 10.0 mi SW 8.1 mph - N/A   Scattered Clouds
7:55 PM 82.0 °F 85.5 °F 69.3 °F 65% 29.84 in 10.0 mi South 8.1 mph - N/A   Scattered Clouds
8:15 PM 80.6 °F 83.9 °F 70.2 °F 70% 29.84 in 10.0 mi South 11.5 mph - N/A   Clear
8:39 PM 78.6 °F - 70.5 °F 76% 29.85 in 10.0 mi South 9.2 mph - N/A   Clear
8:57 PM 77.5 °F - 70.7 °F 79% 29.85 in 10.0 mi SSW 8.1 mph - N/A   Clear
9:15 PM 77.0 °F - 70.7 °F 81% 29.85 in 10.0 mi SSW 6.9 mph - N/A   Scattered Clouds
9:16 PM 77.0 °F - 70.7 °F 81% 29.85 in 10.0 mi SSW 6.9 mph - N/A   Scattered Clouds
9:35 PM 76.1 °F - 70.0 °F 81% 29.86 in 7.0 mi NE 4.6 mph - N/A   Mostly Cloudy
9:55 PM 74.3 °F - 67.3 °F 79% 29.87 in 3.0 mi North 5.8 mph - N/A   Haze
10:18 PM 71.2 °F - 65.5 °F 82% 29.88 in 10.0 mi NE 5.8 mph - N/A   Clear
10:35 PM 71.1 °F - 65.3 °F 82% 29.88 in 10.0 mi NE 3.5 mph - N/A   Scattered Clouds
10:55 PM 70.9 °F - 65.3 °F 82% 29.89 in 10.0 mi NE 3.5 mph - N/A   Mostly Cloudy
10:56 PM 70.9 °F - 65.3 °F 82% 29.89 in 10.0 mi NE 3.5 mph - N/A   Mostly Cloudy
11:15 PM 71.6 °F - 65.3 °F 80% 29.89 in 10.0 mi NNE 5.8 mph - N/A   Overcast
11:39 PM 70.7 °F - 64.9 °F 82% 29.90 in 10.0 mi NNE 5.8 mph - N/A   Scattered Clouds
11:57 PM 70.3 °F - 64.9 °F 83% 29.89 in 10.0 mi Calm Calm - N/A   Mostly Cloudy